sat.trackr.live / text

‹ back to catalog

ONEWEB-0448

NORAD 51641 · 2022-012V

PAYLOAD ACTIVE UNKNOWN

§ Identity

Operator
Country
UK
Launch date
2022-02-10
Launch site
FRGUI
Launch vehicle
Mass (kg)
RCS (m²)

Purposes: comms

External: N2YO · Heavens-Above · Gunter

§ Orbital elements

Epoch: 2026-09-20T02:07:36.672096Z

Period
109.89 min
Inclination
87.8895°
Eccentricity
0.0001731
Mean motion
13.10370420 rev/d
Perigee alt
1,220.4 km
Apogee alt
1,223.0 km
Semi-major
7,599.9 km
B*
1.4662e-3
RAAN
17.3846°
Arg perigee
104.9890°
Mean anomaly
255.1429°
Rev number
22,172

§ Raw data

ONEWEB-04481 51641U 22012V   26263.08861889  .00000524  00000+0  14662-2 0  99922 51641  87.8895  17.3846 0001731 104.9890 255.1429 13.10370420221729

JSON: /api/v1/satellites/51641 · /tle

For live sub-satellite position, see the globe view (requires WebGL).

§ Visibility from observer

Set your observer location to see the next 7 days of passes ≥ 10°. The values pass through the URL so the page stays shareable.

No JS? Fill the form by hand. The geolocation button needs JavaScript.